| time (UTC) | temp F | wind direction | speed knots | gust knots | rain 1hr in | rain 24hr in | rain mn in | humidity % | barometer mb |
| 20260508220604 | 59 | 306 | 1.7 | 6.1 | 0.00 | 0.07 | 0.07 | 51 | 1012.0 |
| 20260508220105 | 59 | 292 | 3.5 | 7.0 | 0.00 | 0.07 | 0.07 | 50 | 1012.1 |
| 20260508215104 | 61 | 290 | 4.3 | 8.7 | 0.00 | 0.07 | 0.07 | 48 | 1011.9 |
| 20260508214604 | 61 | 312 | 1.7 | 6.1 | 0.00 | 0.07 | 0.07 | 48 | 1011.9 |
| 20260508214104 | 61 | 9 | 1.7 | 5.2 | 0.00 | 0.07 | 0.07 | 48 | 1012.1 |
| 20260508213604 | 60 | 19 | 0.9 | 5.2 | 0.00 | 0.07 | 0.07 | 49 | 1012.1 |
| 20260508213105 | 59 | 297 | 2.6 | 7.0 | 0.00 | 0.07 | 0.07 | 51 | 1012.2 |
| 20260508212604 | 59 | 310 | 2.6 | 7.0 | 0.00 | 0.07 | 0.07 | 51 | 1012.2 |
| 20260508212104 | 59 | 339 | 2.6 | 7.0 | 0.00 | 0.07 | 0.07 | 50 | 1012.2 |
| 20260508211104 | 60 | 334 | 5.2 | 10.4 | 0.00 | 0.07 | 0.07 | 48 | 1012.2 |
| 20260508210604 | 60 | 295 | 3.5 | 7.8 | 0.00 | 0.07 | 0.07 | 49 | 1012.1 |
| 20260508210105 | 59 | 311 | 2.6 | 7.8 | 0.00 | 0.07 | 0.07 | 50 | 1012.3 |
| 20260508205605 | 59 | 319 | 2.6 | 10.4 | 0.00 | 0.07 | 0.07 | 51 | 1012.3 |
| 20260508205104 | 59 | 336 | 2.6 | 10.4 | 0.00 | 0.07 | 0.07 | 51 | 1012.3 |
| 20260508204605 | 60 | 347 | 1.7 | 7.8 | 0.00 | 0.07 | 0.07 | 52 | 1012.3 |
| 20260508204105 | 61 | 348 | 3.5 | 11.3 | 0.00 | 0.07 | 0.07 | 49 | 1012.2 |
| 20260508203605 | 61 | 328 | 5.2 | 11.3 | 0.00 | 0.07 | 0.07 | 53 | 1012.1 |
| 20260508203104 | 61 | 275 | 5.2 | 10.4 | 0.00 | 0.07 | 0.07 | 53 | 1012.1 |
| 20260508202604 | 61 | 325 | 5.2 | 11.3 | 0.00 | 0.07 | 0.07 | 54 | 1012.1 |
| 20260508202104 | 61 | 339 | 3.5 | 12.2 | 0.00 | 0.07 | 0.07 | 53 | 1012.2 |
| 20260508201605 | 61 | 303 | 6.1 | 17.4 | 0.00 | 0.07 | 0.07 | 53 | 1012.1 |
| 20260508201104 | 61 | 306 | 4.3 | 8.7 | 0.00 | 0.07 | 0.07 | 58 | 1012.1 |
| 20260508200604 | 60 | 311 | 4.3 | 8.7 | 0.00 | 0.07 | 0.07 | 59 | 1012.0 |
| 20260508200104 | 59 | 287 | 3.5 | 7.8 | 0.00 | 0.07 | 0.07 | 61 | 1011.9 |
| 20260508195604 | 58 | 281 | 6.1 | 10.4 | 0.00 | 0.07 | 0.07 | 59 | 1012.4 |
| 20260508194604 | 60 | 298 | 3.5 | 8.7 | 0.00 | 0.07 | 0.07 | 57 | 1012.3 |
| 20260508193605 | 60 | 313 | 5.2 | 11.3 | 0.00 | 0.07 | 0.07 | 57 | 1012.4 |
| 20260508193104 | 59 | 290 | 4.3 | 10.4 | 0.00 | 0.07 | 0.07 | 62 | 1012.6 |
| 20260508192604 | 59 | 273 | 4.3 | 10.4 | 0.00 | 0.07 | 0.07 | 62 | 1012.4 |
| 20260508192104 | 57 | 297 | 4.3 | 10.4 | 0.01 | 0.07 | 0.07 | 63 | 1012.7 |
| 20260508191605 | 56 | 305 | 0.0 | 2.6 | 0.01 | 0.07 | 0.07 | 64 | 1012.8 |
| 20260508191104 | 56 | 315 | 0.9 | 5.2 | 0.01 | 0.07 | 0.07 | 65 | 1012.8 |
| 20260508190604 | 56 | 295 | 1.7 | 7.0 | 0.01 | 0.07 | 0.07 | 65 | 1012.8 |
| 20260508185604 | 56 | 341 | 1.7 | 2.6 | 0.01 | 0.07 | 0.07 | 67 | 1012.9 |
| 20260508185104 | 56 | 295 | 2.6 | 7.0 | 0.01 | 0.07 | 0.07 | 67 | 1012.9 |
| 20260508184604 | 56 | 51 | 0.9 | 5.2 | 0.01 | 0.07 | 0.07 | 69 | 1012.8 |
| 20260508184104 | 55 | 351 | 0.9 | 2.6 | 0.01 | 0.07 | 0.07 | 73 | 1012.8 |
| 20260508183605 | 54 | 0 | 2.6 | 7.8 | 0.01 | 0.07 | 0.07 | 72 | 1012.9 |
| 20260508183104 | 54 | 49 | 3.5 | 8.7 | 0.01 | 0.07 | 0.07 | 69 | 1013.0 |
| 20260508182104 | 56 | 49 | 3.5 | 10.4 | 0.00 | 0.06 | 0.06 | 63 | 1013.0 |
| 20260508181605 | 57 | 346 | 3.5 | 8.7 | 0.00 | 0.06 | 0.06 | 60 | 1012.9 |
| 20260508181104 | 57 | 358 | 1.7 | 2.6 | 0.00 | 0.06 | 0.06 | 57 | 1012.8 |
| 20260508180604 | 57 | 327 | 1.7 | 5.2 | 0.00 | 0.06 | 0.06 | 58 | 1012.6 |
| 20260508175604 | 57 | 287 | 6.1 | 10.4 | 0.00 | 0.06 | 0.06 | 55 | 1012.4 |
| 20260508175104 | 58 | 311 | 4.3 | 10.4 | 0.00 | 0.06 | 0.06 | 55 | 1012.3 |
| 20260508174604 | 58 | 294 | 5.2 | 11.3 | 0.00 | 0.06 | 0.06 | 53 | 1012.3 |
| 20260508174106 | 59 | 246 | 2.6 | 10.4 | 0.00 | 0.06 | 0.06 | 54 | 1012.3 |
| 20260508173604 | 60 | 270 | 3.5 | 11.3 | 0.00 | 0.06 | 0.06 | 56 | 1012.4 |
| 20260508173104 | 59 | 287 | 4.3 | 8.7 | 0.00 | 0.06 | 0.06 | 57 | 1012.5 |
| 20260508172605 | 58 | 328 | 6.1 | 10.4 | 0.00 | 0.06 | 0.06 | 57 | 1012.6 |
| 20260508172104 | 57 | 295 | 4.3 | 10.4 | 0.00 | 0.06 | 0.06 | 57 | 1012.8 |
| 20260508171603 | 56 | 293 | 2.6 | 7.0 | 0.00 | 0.06 | 0.06 | 57 | 1012.9 |
| 20260508171104 | 56 | 323 | 2.6 | 8.7 | 0.00 | 0.06 | 0.06 | 56 | 1013.0 |
| 20260508170604 | 57 | 306 | 5.2 | 10.4 | 0.00 | 0.06 | 0.06 | 56 | 1012.9 |
| 20260508170104 | 57 | 292 | 2.6 | 10.4 | 0.00 | 0.06 | 0.06 | 57 | 1012.9 |
| 20260508165605 | 57 | 292 | 2.6 | 10.4 | 0.00 | 0.06 | 0.06 | 59 | 1013.0 |
| 20260508165104 | 57 | 309 | 2.6 | 10.4 | 0.00 | 0.06 | 0.06 | 59 | 1013.0 |
| 20260508164604 | 57 | 303 | 6.1 | 10.4 | 0.00 | 0.06 | 0.06 | 56 | 1013.0 |
| 20260508163604 | 56 | 269 | 1.7 | 7.8 | 0.00 | 0.06 | 0.06 | 59 | 1013.1 |
| 20260508162605 | 56 | 348 | 4.3 | 8.7 | 0.00 | 0.06 | 0.06 | 55 | 1013.1 |
| 20260508162104 | 56 | 310 | 2.6 | 7.8 | 0.00 | 0.06 | 0.06 | 57 | 1013.1 |
| 20260508161104 | 57 | 302 | 2.6 | 10.4 | 0.00 | 0.06 | 0.06 | 56 | 1013.2 |
| 20260508160604 | 57 | 285 | 3.5 | 7.8 | 0.00 | 0.06 | 0.06 | 56 | 1013.3 |
| 20260508160104 | 56 | 310 | 3.5 | 10.4 | 0.00 | 0.06 | 0.06 | 57 | 1013.3 |
| 20260508155604 | 56 | 309 | 5.2 | 10.4 | 0.00 | 0.06 | 0.06 | 55 | 1013.5 |
| 20260508155105 | 57 | 302 | 6.1 | 13.0 | 0.00 | 0.06 | 0.06 | 54 | 1013.4 |
| 20260508154604 | 58 | 289 | 6.1 | 17.4 | 0.00 | 0.06 | 0.06 | 55 | 1013.3 |
| 20260508153604 | 56 | 299 | 6.1 | 10.4 | 0.00 | 0.06 | 0.06 | 53 | 1013.3 |
| 20260508153104 | 56 | 265 | 3.5 | 7.8 | 0.00 | 0.06 | 0.06 | 57 | 1013.3 |
| 20260508152604 | 56 | 301 | 5.2 | 7.8 | 0.00 | 0.06 | 0.06 | 56 | 1013.2 |
| 20260508151604 | 56 | 350 | 3.5 | 7.8 | 0.00 | 0.06 | 0.06 | 54 | 1013.2 |
| 20260508151104 | 57 | 335 | 3.5 | 10.4 | 0.00 | 0.06 | 0.06 | 54 | 1013.3 |
| 20260508150104 | 57 | 296 | 1.7 | 7.8 | 0.00 | 0.06 | 0.06 | 54 | 1013.2 |
| 20260508145605 | 57 | 302 | 4.3 | 10.4 | 0.00 | 0.06 | 0.06 | 53 | 1013.3 |
| 20260508144604 | 56 | 290 | 2.6 | 7.8 | 0.00 | 0.06 | 0.06 | 58 | 1013.4 |
| 20260508144105 | 56 | 293 | 5.2 | 8.7 | 0.00 | 0.06 | 0.06 | 60 | 1013.6 |
| 20260508143603 | 56 | 278 | 2.6 | 5.2 | 0.00 | 0.06 | 0.06 | 60 | 1013.6 |
| 20260508143106 | 56 | 303 | 5.2 | 8.7 | 0.00 | 0.06 | 0.06 | 59 | 1013.6 |
| 20260508142103 | 56 | 337 | 2.6 | 7.8 | 0.00 | 0.06 | 0.06 | 63 | 1013.8 |
| 20260508141604 | 55 | 332 | 4.3 | 10.4 | 0.00 | 0.06 | 0.06 | 64 | 1013.8 |
| 20260508141105 | 56 | 259 | 3.5 | 7.8 | 0.00 | 0.06 | 0.06 | 65 | 1013.8 |
| 20260508140604 | 55 | 266 | 3.5 | 7.0 | 0.00 | 0.06 | 0.06 | 66 | 1013.8 |
| 20260508140103 | 54 | 290 | 3.5 | 7.8 | 0.00 | 0.06 | 0.06 | 66 | 1013.8 |
| 20260508135604 | 54 | 346 | 5.2 | 10.4 | 0.00 | 0.06 | 0.06 | 64 | 1013.9 |
| 20260508135104 | 54 | 315 | 3.5 | 10.4 | 0.00 | 0.06 | 0.06 | 66 | 1013.7 |
| 20260508134604 | 54 | 313 | 1.7 | 8.7 | 0.00 | 0.06 | 0.06 | 66 | 1013.7 |
| 20260508134103 | 54 | 351 | 2.6 | 6.1 | 0.00 | 0.06 | 0.06 | 66 | 1013.7 |
| 20260508133604 | 54 | 267 | 5.2 | 10.4 | 0.00 | 0.06 | 0.06 | 66 | 1013.7 |
| 20260508133104 | 54 | 342 | 1.7 | 7.0 | 0.00 | 0.06 | 0.06 | 71 | 1013.7 |
| 20260508132604 | 53 | 283 | 1.7 | 7.0 | 0.00 | 0.06 | 0.06 | 71 | 1013.7 |
| 20260508132104 | 53 | 6 | 1.7 | 2.6 | 0.00 | 0.06 | 0.06 | 75 | 1013.7 |
| 20260508131604 | 51 | 332 | 1.7 | 6.1 | 0.00 | 0.06 | 0.06 | 75 | 1013.8 |
| 20260508131103 | 51 | 294 | 5.2 | 10.4 | 0.00 | 0.06 | 0.06 | 75 | 1013.9 |
| 20260508130604 | 51 | 292 | 2.6 | 8.7 | 0.00 | 0.06 | 0.06 | 77 | 1014.0 |
| 20260508130105 | 51 | 357 | 4.3 | 8.7 | 0.00 | 0.06 | 0.06 | 78 | 1014.0 |
| 20260508124603 | 50 | 269 | 1.7 | 7.0 | 0.00 | 0.06 | 0.06 | 82 | 1014.0 |
| 20260508124103 | 49 | 318 | 0.9 | 4.3 | 0.00 | 0.06 | 0.06 | 82 | 1013.9 |
| 20260508123104 | 48 | 296 | 3.5 | 7.0 | 0.00 | 0.06 | 0.06 | 84 | 1013.9 |
| 20260508122604 | 48 | 287 | 0.9 | 2.6 | 0.00 | 0.06 | 0.06 | 85 | 1013.8 |
| 20260508122104 | 48 | 203 | 0.9 | 4.3 | 0.00 | 0.06 | 0.06 | 86 | 1013.7 |
| 20260508121605 | 47 | 350 | 3.5 | 8.7 | 0.00 | 0.06 | 0.06 | 86 | 1014.1 |
| 20260508121104 | 47 | 292 | 4.3 | 7.8 | 0.00 | 0.06 | 0.06 | 87 | 1014.2 |
| 20260508120604 | 47 | 294 | 2.6 | 6.1 | 0.00 | 0.06 | 0.06 | 88 | 1014.3 |
| 20260508120104 | 46 | 309 | 2.6 | 7.8 | 0.00 | 0.06 | 0.06 | 88 | 1014.3 |
| 20260508115604 | 46 | 314 | 1.7 | 6.1 | 0.00 | 0.06 | 0.06 | 89 | 1014.3 |
| 20260508114604 | 46 | 313 | 2.6 | 7.0 | 0.00 | 0.06 | 0.06 | 90 | 1014.1 |
| 20260508114105 | 46 | 298 | 2.6 | 6.1 | 0.00 | 0.06 | 0.06 | 90 | 1014.2 |
| 20260508113604 | 46 | 299 | 1.7 | 5.2 | 0.00 | 0.06 | 0.06 | 91 | 1014.2 |
| 20260508113105 | 45 | 316 | 4.3 | 8.7 | 0.00 | 0.06 | 0.06 | 91 | 1014.3 |
| 20260508112604 | 45 | 315 | 3.5 | 8.7 | 0.00 | 0.06 | 0.06 | 91 | 1014.3 |
| 20260508112105 | 45 | 314 | 3.5 | 7.8 | 0.00 | 0.06 | 0.06 | 91 | 1014.2 |
| 20260508111604 | 45 | 311 | 3.5 | 7.8 | 0.00 | 0.06 | 0.06 | 92 | 1014.1 |
| 20260508111104 | 45 | 326 | 0.9 | 5.2 | 0.00 | 0.06 | 0.06 | 92 | 1014.0 |
| 20260508110604 | 44 | 309 | 0.9 | 2.6 | 0.00 | 0.06 | 0.06 | 92 | 1013.9 |
| 20260508110104 | 44 | 307 | 1.7 | 5.2 | 0.00 | 0.06 | 0.06 | 92 | 1013.9 |
| 20260508104604 | 43 | 309 | 0.9 | 2.6 | 0.00 | 0.06 | 0.06 | 92 | 1013.6 |
| 20260508104105 | 43 | 311 | 0.9 | 2.6 | 0.00 | 0.06 | 0.06 | 92 | 1013.6 |
| 20260508103604 | 43 | 293 | 1.7 | 6.1 | 0.00 | 0.06 | 0.06 | 92 | 1013.5 |
| 20260508103104 | 43 | 298 | 1.7 | 5.2 | 0.00 | 0.06 | 0.06 | 92 | 1013.5 |
| 20260508102104 | 43 | 310 | 1.7 | 2.6 | 0.00 | 0.06 | 0.06 | 92 | 1013.6 |
| 20260508101604 | 43 | 305 | 1.7 | 5.2 | 0.00 | 0.06 | 0.06 | 92 | 1013.5 |
| 20260508101105 | 43 | 308 | 2.6 | 5.2 | 0.00 | 0.06 | 0.06 | 92 | 1013.5 |
| 20260508100605 | 43 | 304 | 1.7 | 5.2 | 0.00 | 0.06 | 0.06 | 92 | 1013.4 |
| 20260508100104 | 43 | 298 | 1.7 | 6.1 | 0.00 | 0.06 | 0.06 | 92 | 1013.2 |
| 20260508095604 | 43 | 286 | 2.6 | 5.2 | 0.00 | 0.06 | 0.06 | 92 | 1013.2 |
| 20260508095103 | 43 | 308 | 2.6 | 6.1 | 0.00 | 0.06 | 0.06 | 92 | 1013.2 |
| 20260508094604 | 43 | 303 | 0.9 | 5.2 | 0.00 | 0.06 | 0.06 | 92 | 1013.2 |
| 20260508094105 | 43 | 306 | 0.9 | 2.6 | 0.00 | 0.06 | 0.06 | 91 | 1013.2 |
| 20260508093604 | 43 | 308 | 1.7 | 2.6 | 0.00 | 0.06 | 0.06 | 91 | 1013.1 |
| 20260508093104 | 43 | 314 | 1.7 | 5.2 | 0.00 | 0.06 | 0.06 | 91 | 1013.1 |
| 20260508092103 | 43 | 294 | 0.0 | 2.6 | 0.00 | 0.06 | 0.06 | 91 | 1013.2 |
| 20260508091604 | 43 | 311 | 0.9 | 2.6 | 0.00 | 0.06 | 0.06 | 91 | 1013.1 |
| 20260508091105 | 43 | 303 | 0.0 | 2.6 | 0.00 | 0.06 | 0.06 | 91 | 1013.0 |
| 20260508090603 | 43 | 302 | 0.0 | 1.7 | 0.00 | 0.06 | 0.06 | 91 | 1013.0 |
| 20260508090104 | 43 | 302 | 0.9 | 2.6 | 0.00 | 0.06 | 0.06 | 90 | 1012.8 |
| 20260508085604 | 43 | 302 | 0.0 | 1.7 | 0.00 | 0.06 | 0.06 | 91 | 1012.8 |
| 20260508085104 | 44 | 302 | 0.0 | 0.0 | 0.00 | 0.06 | 0.06 | 90 | 1012.8 |
| 20260508083604 | 44 | 302 | 0.0 | 0.0 | 0.00 | 0.06 | 0.06 | 90 | 1012.7 |
| 20260508082604 | 44 | 302 | 0.0 | 0.0 | 0.00 | 0.06 | 0.06 | 90 | 1012.7 |
| 20260508082104 | 44 | 302 | 0.0 | 0.0 | 0.00 | 0.06 | 0.06 | 90 | 1012.7 |
| 20260508081605 | 45 | 302 | 0.0 | 0.9 | 0.00 | 0.06 | 0.06 | 90 | 1012.8 |
| 20260508080604 | 45 | 299 | 0.0 | 0.9 | 0.00 | 0.06 | 0.06 | 90 | 1012.8 |
| 20260508080104 | 45 | 299 | 0.0 | 1.7 | 0.00 | 0.06 | 0.06 | 89 | 1012.7 |
| 20260508075603 | 45 | 299 | 0.0 | 0.0 | 0.00 | 0.06 | 0.06 | 89 | 1012.7 |
| 20260508075105 | 45 | 299 | 0.0 | 2.6 | 0.00 | 0.06 | 0.06 | 89 | 1012.8 |
| 20260508074605 | 45 | 289 | 0.9 | 2.6 | 0.00 | 0.06 | 0.06 | 89 | 1012.9 |
| 20260508074103 | 45 | 297 | 0.9 | 2.6 | 0.00 | 0.07 | 0.06 | 89 | 1012.8 |
| 20260508073603 | 45 | 297 | 0.0 | 2.6 | 0.00 | 0.07 | 0.06 | 89 | 1012.8 |
| 20260508073103 | 45 | 297 | 1.7 | 2.6 | 0.00 | 0.07 | 0.06 | 89 | 1012.8 |
| 20260508072604 | 45 | 297 | 1.7 | 2.6 | 0.00 | 0.07 | 0.06 | 89 | 1012.7 |
| 20260508071604 | 45 | 267 | 0.0 | 2.6 | 0.00 | 0.07 | 0.06 | 89 | 1012.9 |
| 20260508071104 | 45 | 297 | 1.7 | 2.6 | 0.00 | 0.07 | 0.06 | 88 | 1013.0 |
| 20260508070604 | 45 | 317 | 0.9 | 2.6 | 0.00 | 0.07 | 0.06 | 88 | 1013.2 |
| 20260508070104 | 46 | 335 | 0.9 | 2.6 | 0.01 | 0.07 | 0.06 | 88 | 1013.1 |
| 20260508065604 | 46 | 308 | 0.9 | 2.6 | 0.01 | 0.08 | 0.06 | 88 | 1012.9 |
| 20260508065104 | 46 | 305 | 0.0 | 0.9 | 0.02 | 0.08 | 0.06 | 87 | 1012.7 |
| 20260508064604 | 46 | 305 | 0.0 | 1.7 | 0.02 | 0.08 | 0.06 | 87 | 1012.6 |
| 20260508064104 | 46 | 305 | 0.0 | 0.0 | 0.02 | 0.08 | 0.06 | 87 | 1012.6 |
| 20260508063604 | 46 | 305 | 0.9 | 1.7 | 0.03 | 0.08 | 0.06 | 86 | 1012.9 |
| 20260508062604 | 46 | 319 | 0.9 | 2.6 | 0.04 | 0.08 | 0.06 | 85 | 1013.1 |
| 20260508061604 | 46 | 299 | 0.0 | 2.6 | 0.05 | 0.09 | 0.06 | 85 | 1013.1 |
| 20260508060604 | 46 | 344 | 0.9 | 6.1 | 0.05 | 0.09 | 0.06 | 84 | 1013.2 |
| 20260508060105 | 47 | 1 | 0.0 | 1.7 | 0.05 | 0.08 | 0.05 | 84 | 1013.3 |
| 20260508055604 | 47 | 355 | 0.0 | 0.0 | 0.05 | 0.08 | 0.05 | 83 | 1013.3 |
| 20260508055105 | 47 | 1 | 0.0 | 0.0 | 0.04 | 0.07 | 0.04 | 83 | 1013.3 |
| 20260508054604 | 47 | 327 | 0.0 | 0.0 | 0.04 | 0.08 | 0.04 | 83 | 1013.1 |
| 20260508053604 | 47 | 308 | 0.0 | 0.0 | 0.03 | 0.07 | 0.03 | 82 | 1012.6 |
| 20260508053105 | 47 | 20 | 0.0 | 0.0 | 0.02 | 0.06 | 0.02 | 81 | 1011.9 |
| 20260508052604 | 48 | 99 | 0.0 | 0.0 | 0.02 | 0.06 | 0.02 | 80 | 1011.6 |
| 20260508052104 | 48 | 103 | 0.0 | 0.0 | 0.01 | 0.05 | 0.01 | 78 | 1011.7 |
| 20260508051604 | 48 | 103 | 0.0 | 0.0 | 0.01 | 0.05 | 0.01 | 77 | 1011.5 |
| 20260508051103 | 48 | 103 | 0.0 | 0.0 | 0.01 | 0.05 | 0.01 | 76 | 1011.6 |
| 20260508050604 | 49 | 104 | 0.0 | 0.0 | 0.01 | 0.05 | 0.01 | 76 | 1011.6 |
| 20260508050104 | 48 | 104 | 0.0 | 0.0 | 0.00 | 0.04 | 0.00 | 75 | 1011.6 |
| 20260508045604 | 48 | 104 | 0.0 | 0.0 | 0.00 | 0.04 | 0.00 | 74 | 1011.5 |
| 20260508045103 | 48 | 104 | 0.0 | 0.0 | 0.00 | 0.04 | 0.00 | 74 | 1011.4 |
| 20260508044604 | 48 | 104 | 0.0 | 0.0 | 0.00 | 0.04 | 0.00 | 74 | 1011.4 |
| 20260508043604 | 48 | 104 | 0.0 | 0.0 | 0.00 | 0.04 | 0.00 | 74 | 1011.3 |
| 20260508043104 | 48 | 104 | 0.0 | 0.0 | 0.00 | 0.04 | 0.00 | 75 | 1011.2 |
| 20260508042104 | 48 | 90 | 0.0 | 0.0 | 0.00 | 0.04 | 0.00 | 76 | 1011.2 |
| 20260508041604 | 48 | 90 | 0.0 | 0.0 | 0.00 | 0.04 | 0.00 | 76 | 1011.1 |
| 20260508040604 | 47 | 36 | 0.0 | 0.0 | 0.00 | 0.04 | 0.00 | 78 | 1011.1 |
| 20260508040105 | 47 | 29 | 0.0 | 0.0 | 0.00 | 0.04 | 0.00 | 77 | 1011.2 |
| 20260508035604 | 47 | 29 | 0.0 | 0.0 | 0.00 | 0.04 | 0.04 | 77 | 1011.2 |
| 20260508034605 | 47 | 29 | 0.0 | 0.0 | 0.00 | 0.04 | 0.04 | 76 | 1011.2 |
| 20260508034104 | 46 | 29 | 0.0 | 0.0 | 0.00 | 0.04 | 0.04 | 76 | 1011.2 |
| 20260508033604 | 46 | 29 | 0.0 | 0.0 | 0.00 | 0.04 | 0.04 | 76 | 1011.2 |
| 20260508033104 | 46 | 29 | 0.0 | 0.0 | 0.00 | 0.04 | 0.04 | 76 | 1011.3 |
| 20260508032604 | 46 | 29 | 0.0 | 0.0 | 0.00 | 0.04 | 0.04 | 76 | 1011.4 |
| 20260508032104 | 46 | 29 | 0.0 | 0.0 | 0.00 | 0.04 | 0.04 | 75 | 1011.3 |
| 20260508031604 | 46 | 29 | 0.0 | 0.0 | 0.00 | 0.04 | 0.04 | 74 | 1011.3 |
| 20260508031104 | 47 | 29 | 0.0 | 0.0 | 0.00 | 0.04 | 0.04 | 74 | 1011.2 |
| 20260508030605 | 47 | 29 | 0.0 | 0.0 | 0.00 | 0.04 | 0.04 | 73 | 1011.3 |
| 20260508025604 | 47 | 29 | 0.0 | 0.0 | 0.00 | 0.04 | 0.04 | 73 | 1011.4 |
| 20260508025104 | 47 | 29 | 0.0 | 0.0 | 0.00 | 0.04 | 0.04 | 73 | 1011.3 |
| 20260508024604 | 47 | 29 | 0.0 | 0.0 | 0.00 | 0.04 | 0.04 | 72 | 1011.2 |
| 20260508024103 | 48 | 29 | 0.0 | 0.0 | 0.00 | 0.04 | 0.04 | 72 | 1011.2 |
| 20260508023604 | 48 | 29 | 0.0 | 0.0 | 0.00 | 0.04 | 0.04 | 72 | 1011.1 |
| 20260508022604 | 48 | 29 | 0.0 | 0.0 | 0.00 | 0.04 | 0.04 | 72 | 1011.2 |
| 20260508022103 | 48 | 29 | 0.0 | 0.0 | 0.00 | 0.04 | 0.04 | 71 | 1011.2 |
| 20260508021604 | 48 | 29 | 0.0 | 0.0 | 0.00 | 0.04 | 0.04 | 70 | 1011.2 |
| 20260508021104 | 49 | 35 | 0.0 | 0.0 | 0.00 | 0.04 | 0.04 | 68 | 1011.0 |
| 20260508020603 | 49 | 35 | 0.0 | 7.0 | 0.00 | 0.04 | 0.04 | 67 | 1010.9 |
| 20260508020104 | 48 | 36 | 0.0 | 4.3 | 0.00 | 0.04 | 0.04 | 70 | 1010.9 |
| 20260508015604 | 48 | 54 | 0.0 | 2.6 | 0.00 | 0.04 | 0.04 | 70 | 1010.9 |
| 20260508015103 | 49 | 45 | 0.0 | 1.7 | 0.00 | 0.04 | 0.04 | 68 | 1010.8 |
| 20260508014604 | 49 | 45 | 0.0 | 0.0 | 0.00 | 0.04 | 0.04 | 67 | 1010.7 |
| 20260508013104 | 50 | 45 | 0.0 | 0.9 | 0.00 | 0.04 | 0.04 | 63 | 1010.5 |
| 20260508012604 | 50 | 45 | 0.0 | 0.0 | 0.00 | 0.04 | 0.04 | 64 | 1010.5 |
| 20260508012104 | 50 | 45 | 0.0 | 0.0 | 0.00 | 0.04 | 0.04 | 63 | 1010.5 |
| 20260508011604 | 50 | 45 | 0.0 | 0.0 | 0.00 | 0.04 | 0.04 | 62 | 1010.6 |
| 20260508011104 | 51 | 45 | 0.0 | 0.0 | 0.00 | 0.04 | 0.04 | 62 | 1010.5 |
| 20260508010104 | 51 | 45 | 0.0 | 0.0 | 0.00 | 0.04 | 0.04 | 60 | 1010.4 |
| 20260508005605 | 51 | 45 | 0.0 | 0.0 | 0.00 | 0.04 | 0.04 | 61 | 1010.3 |
| 20260508005103 | 52 | 45 | 0.0 | 0.0 | 0.00 | 0.04 | 0.04 | 60 | 1010.2 |
| 20260508004605 | 52 | 45 | 0.0 | 0.0 | 0.00 | 0.04 | 0.04 | 59 | 1010.3 |
| 20260508004104 | 52 | 45 | 0.0 | 0.0 | 0.00 | 0.04 | 0.04 | 58 | 1010.3 |
| 20260508003604 | 53 | 45 | 0.0 | 0.0 | 0.00 | 0.04 | 0.04 | 56 | 1010.1 |
| 20260508002605 | 53 | 45 | 0.0 | 0.0 | 0.00 | 0.04 | 0.04 | 55 | 1010.0 |
| 20260508001104 | 55 | 45 | 0.0 | 1.7 | 0.00 | 0.04 | 0.04 | 51 | 1009.9 |
| 20260508000104 | 56 | 18 | 0.0 | 0.9 | 0.00 | 0.04 | 0.04 | 49 | 1009.7 |
| 20260507235604 | 56 | 18 | 0.0 | 0.9 | 0.00 | 0.04 | 0.04 | 48 | 1009.7 |
| 20260507234603 | 57 | 18 | 0.0 | 0.0 | 0.00 | 0.04 | 0.04 | 45 | 1009.8 |
| 20260507234104 | 58 | 18 | 0.0 | 0.0 | 0.00 | 0.04 | 0.04 | 45 | 1009.7 |
| 20260507233603 | 58 | 18 | 0.0 | 1.7 | 0.00 | 0.04 | 0.04 | 42 | 1009.6 |
| 20260507233103 | 58 | 18 | 0.9 | 2.6 | 0.00 | 0.04 | 0.04 | 42 | 1009.7 |
| 20260507232604 | 59 | 26 | 0.0 | 2.6 | 0.00 | 0.04 | 0.04 | 42 | 1009.5 |
| 20260507232104 | 59 | 25 | 1.7 | 4.3 | 0.00 | 0.04 | 0.04 | 40 | 1009.3 |
| 20260507231604 | 59 | 40 | 1.7 | 4.3 | 0.00 | 0.04 | 0.04 | 40 | 1009.3 |
| 20260507231104 | 59 | 97 | 2.6 | 8.7 | 0.00 | 0.04 | 0.04 | 39 | 1009.3 |
| 20260507230604 | 59 | 38 | 1.7 | 7.8 | 0.00 | 0.04 | 0.04 | 40 | 1009.4 |
| 20260507230104 | 60 | 15 | 1.7 | 7.8 | 0.00 | 0.04 | 0.04 | 39 | 1009.3 |
| 20260507225604 | 60 | 53 | 1.7 | 10.4 | 0.00 | 0.04 | 0.04 | 39 | 1009.3 |
| 20260507225104 | 60 | 37 | 2.6 | 10.4 | 0.00 | 0.04 | 0.04 | 38 | 1009.3 |
| 20260507224603 | 60 | 13 | 2.6 | 7.0 | 0.00 | 0.04 | 0.04 | 39 | 1009.2 |
| 20260507224105 | 60 | 325 | 1.7 | 4.3 | 0.00 | 0.04 | 0.04 | 39 | 1009.4 |
| 20260507223603 | 60 | 358 | 1.7 | 8.7 | 0.00 | 0.04 | 0.04 | 38 | 1009.3 |
| 20260507222604 | 60 | 8 | 1.7 | 7.8 | 0.00 | 0.04 | 0.04 | 39 | 1009.5 |
| 20260507222104 | 61 | 348 | 1.7 | 7.8 | 0.00 | 0.04 | 0.04 | 39 | 1009.5 |
| 20260507221104 | 61 | 16 | 6.1 | 13.0 | 0.00 | 0.04 | 0.04 | 37 | 1009.4 |